Regional Weather Roundup
Issued by NWS

Current Version | Previous Version | Text Only | Print | Product List | Glossary On
Versions: 1 2 3 4 5 6 7 8 9 10 11 12 13 14 15 16 17 18 19 20 21 22 23 24 25 26 27 28 29 30 31 32 33 34 35 36 37 38 39 40 41 42 43 44 45 46 47 48 49 50
000
ASUS43 KDMX 012006
RWRIA

WEATHER ROUNDUP FOR IOWA
NATIONAL WEATHER SERVICE DES MOINES IA
200 PM CST WED MAR 01 2017

NOTE: "FAIR" INDICATES FEW OR NO CLOUDS BELOW 12,000 FEET WITH NO
SIGNIFICANT WEATHER AND/OR OBSTRUCTIONS TO VISIBILITY.

* - THESE STATIONS ARE NOT NWS STATIONS...THUS NOT UNDER NWS
QUALITY CONTROL.  THEY ALSO DO NOT REPORT WEATHER SUCH
AS PRECIPITATION OR FOG.

IAZ001>003-012>014-020>022-031>034-043>046-012100-
   NORTHWEST IOWA

CITY           SKY/WX    TMP DP  RH WIND       PRES   REMARKS
CARROLL *      PTSUNNY   39  32  75 NW24      30.04R WCI  28
CHEROKEE *     CLOUDY    32  26  80 NW12G17   30.08R WCI  23
DENISON *      CLOUDY    37  27  65 W22G31    30.05R WCI  27
LE MARS *      CLOUDY    34  27  75 NW20      30.09S WCI  22
SHELDON *      CLOUDY    32  32 100 NW16G24   30.03R WCI  21
SIOUX CITY     FLURRIES  36  30  79 NW21G29   30.10R WCI  25
SPENCER        CLOUDY    34  26  72 W23       30.02R WCI  22
STORM LAKE *   MOSUNNY   32  27  80 NW25G33   30.03S WCI  19
$$

IAZ055>058-069>071-079>083-090>094-012100-
   SOUTHWEST IOWA

CITY           SKY/WX    TMP DP  RH WIND       PRES   REMARKS
ATLANTIC *     CLOUDY    41  28  60 NW20      30.06S
AUDUBON *      PTSUNNY   39  28  65 NW14G22   30.06R WCI  31
CLARINDA *     PTSUNNY   45  28  53 NW20G28   30.11S
COUNCIL BLFS * CLOUDY    39  28  65 NW16G28   30.09R WCI  30
CRESTON *      CLOUDY    37  28  70 NW25G33   30.06R WCI  26
HARLAN  *      CLOUDY    37  30  75 NW24G33   30.11R WCI  26
LAMONI         CLOUDY    39  27  62 NW22G31   30.05R WCI  29
RED OAK *      PTSUNNY   45  28  53 NW15G25   30.09S
SHENANDOAH *   MOSUNNY   45  27  49 NW20G26   30.11S
$$

IAZ047>049-059>061-072>074-084-012100-
   CENTRAL IOWA

CITY           SKY/WX    TMP DP  RH WIND       PRES   REMARKS
AMES           PTSUNNY   40  31  70 NW23G35   30.00  WCI  30
ANKENY *       PTSUNNY   41  27  56 NW23G33   30.02R
BOONE *        PTSUNNY   36  27  69 NW22G35   29.99R WCI  24
CHARITON *     CLOUDY    39  28  65 NW21      30.01R WCI  29
DES MOINES     PTSUNNY   41  26  55 NW22G30   30.01
GRINNELL*      CLOUDY    37  30  78 W25G33    29.97R WCI  25
KNOXVILLE *    CLOUDY    41  27  56 NW21      29.98R
MARSHALLTOWN   CLOUDY    37  29  72 W26G32    29.95R WCI  25
NEWTON *       CLOUDY    37  30  75 NW20G25   29.97R WCI  27
PELLA *        PTSUNNY   39  29  67 NW20G28   29.99S WCI  30
PERRY *        CLOUDY    38  30  73 W21G29    30.03R WCI  27
$$

IAZ004>006-015-016-023>025-035-036-012100-
   NORTH CENTRAL IOWA

CITY           SKY/WX    TMP DP  RH WIND       PRES   REMARKS
ALGONA *       CLOUDY    36  27  69 NW16G23   29.98R WCI  26
CLARION *      PTSUNNY   36  28  75 NW23G31   29.98R WCI  24
ESTHERVILLE    MOSUNNY   34  27  75 NW17G25   29.98R WCI  23
FORT DODGE *   PTSUNNY   36  27  69 W20G25    30.01R WCI  25
MASON CITY     CLOUDY    32  26  78 NW22      29.95R WCI  19
FOREST CITY *  CLOUDY    32  27  80 NW18G25   29.95R WCI  20
WEBSTER CITY * CLOUDY    36  28  75 NW22      29.98R WCI  24
IOWA FALLS *   CLOUDY    37  30  77 NW23      29.96R WCI  25
$$

IAZ007>011-017>019-026>030-037>042-050>054-066-012100-
   NORTHEAST IOWA

CITY           SKY/WX    TMP DP  RH WIND       PRES   REMARKS
CEDAR RAPIDS   CLOUDY    36  29  75 NW32G39   29.89R WCI  23
CHARLES CITY * CLOUDY    34  30  86 NW18G25   29.91R WCI  23
CLINTON *      CLOUDY    35  28  75 NW29G40   29.80  WCI  22
DECORAH *      CLOUDY    30  25  80 NW18G26   29.85R WCI  18
DUBUQUE        CLOUDY    33  28  81 NW23G35   29.80R WCI  21
MONTICELLO *   CLOUDY    36  30  80 NW29G36   29.84R WCI  23
OELWEIN *      CLOUDY    34  28  80 NW23G36   29.89R WCI  22
WATERLOO       CLOUDY    35  26  69 NW22G29   29.92  WCI  23
$$

IAZ064-065-067-068-078-012100-
   EAST CENTRAL IOWA

CITY           SKY/WX    TMP DP  RH WIND       PRES   REMARKS
DAVENPORT      CLOUDY    37  30  75 NW32G45   29.83R WCI  24
IOWA CITY      CLOUDY    39  27  62 NW29G38   29.92  WCI  27
MUSCATINE *    CLOUDY    41  28  60 NW26G41   29.90R
QUAD CITIES    CLOUDY    40  30  67 NW29G39   29.83  WCI  29
$$

IAZ062-063-075>077-085>089-095>099-012100-
   SOUTHEAST IOWA

CITY           SKY/WX    TMP DP  RH WIND       PRES   REMARKS
BURLINGTON     CLOUDY    41  30  65 NW22G38   29.92R
FAIRFIELD *    CLOUDY    39  27  60 NW29G36   29.95R WCI  28
FORT MADISON * CLOUDY    41  32  70 NW24G36   29.95R
KEOKUK *       CLOUDY    43  30  61 NW22G31   29.94R
OTTUMWA        CLOUDY    42  27  55 NW28G35   29.97R
WASHINGTON *   CLOUDY    39  30  70 W28       29.94R WCI  28
$$

ABBREVIATIONS USED IN REMARKS
   TC - TEMPERATURES IN CELSIUS
  WCI - WIND CHILL INDEX
   HX - HEAT INDEX
  VSB - VISIBILITY
$$




USA.gov is the U.S. government's official web portal to all federal, state and local government web resources and services.